Regional Weather Roundup
Issued by NWS

Home | Current Version | Previous Version | Graphics & Text | Print | Product List | Glossary On
Versions: 1 2 3 4 5 6 7 8 9 10 11 12 13 14 15 16 17 18 19 20 21 22 23 24 25 26 27 28 29 30 31 32 33 34 35 36 37 38 39 40 41 42 43 44 45 46 47 48 49 50
000
ASUS43 KOAX 272302
RWRNE

WEATHER ROUNDUP FOR NEBRASKA
NATIONAL WEATHER SERVICE OMAHA NE
600 PM CDT MON JUL 27 2015

NOTES: SATELLITE DATA IS BEING USED TO AUGMENT CLOUD COVER ABOVE
       12000 FEET.
       "FAIR" INDICATES FEW OR NO CLOUDS BELOW 12,000 FEET WITH NO
       SIGNIFICANT WEATHER AND/OR OBSTRUCTIONS TO VISIBILITY.

  * THESE STATIONS DO NOT REPORT WEATHER SUCH AS RAIN...SNOW OR FOG.

NEZ001>004-019>022-054>056-280000-
NEBRASKA PANHANDLE

CITY           SKY/WX    TMP DP  RH WIND       PRES   REMARKS
SCOTTSBLUFF    MOSUNNY   94  56  27 S16       29.71F HX  92
ALLIANCE       MOSUNNY   91  65  41 SE17G26   29.73F HX  93
CHADRON        SUNNY     94  62  34 S24G31    29.63F HX  94
KIMBALL        MOSUNNY   93  50  23 S16       29.79S
SIDNEY         PTSUNNY   96  50  20 S16G24    29.77F HX  93
$$

NEZ057>060-069>072-079>082-280000-
SOUTHWEST NEBRASKA

CITY           SKY/WX    TMP DP  RH WIND       PRES   REMARKS
NORTH PLATTE   MOSUNNY   91  69  48 S20G30    29.75F HX  96
IMPERIAL       PTSUNNY   92  67  43 S21G29    29.76F HX  95
MCCOOK         MOSUNNY   93  69  45 S17G28    29.75F HX  98
$$

NEZ005>010-023>029-035>040-094-280000-
NORTH CENTRAL NEBRASKA

CITY           SKY/WX    TMP DP  RH WIND       PRES   REMARKS
VALENTINE      SUNNY     92  66  42 S21G26    29.72F HX  94
AINSWORTH      MOSUNNY   91  68  46 S20G26    29.75F HX  94
BROKEN BOW     MOSUNNY   90  72  55 S15G31    29.77F HX  97
O`NEILL        SUNNY     89  70  52 S22       29.77F HX  94
ORD            MOSUNNY   89  71  55 SE22G30   29.76F HX  95
$$

NEZ041-046>049-061>064-073>077-083>087-280000-
SOUTH CENTRAL NEBRASKA

CITY           SKY/WX    TMP DP  RH WIND       PRES   REMARKS
GRAND ISLAND   SUNNY     88  72  58 S17G24    29.81F HX  94
AURORA         SUNNY     87  71  58 SE16      29.82S HX  93
HASTINGS       SUNNY     89  73  59 SE15G21   29.81F HX  97
KEARNEY *      SUNNY     90  73  58 SE16      29.79F HX  98
$$

NEZ011>018-030>034-042>045-280000-
NORTHEAST NEBRASKA

CITY           SKY/WX    TMP DP  RH WIND       PRES   REMARKS
NORFOLK        SUNNY     89  71  55 S20       29.80F HX  95
BLAIR          SUNNY     87  72  61 SE9G16    29.85R HX  93
COLUMBUS *     SUNNY     88  72  58 SE8G16    29.81S HX  94
FREMONT        SUNNY     89  70  53 SE13      29.83F HX  94
TEKAMAH        MOSUNNY   87  78  74 SE14G21   29.83S HX 100
$$

NEZ050>053-065>068-078-088>093-280000-
SOUTHEAST NEBRASKA

CITY           SKY/WX    TMP DP  RH WIND       PRES   REMARKS
LINCOLN        MOSUNNY   91  75  59 S15       29.83F HX 101
OMAHA EPPLEY   PTSUNNY   87  77  72 SE16      29.85R HX  99
FALLS CITY     SUNNY     90  78  68 S9        29.84F HX 104
$$

NEZ044-045-051>053-067-280000-
OMAHA AREA

CITY           SKY/WX    TMP DP  RH WIND       PRES   REMARKS
OMAHA EPPLEY   PTSUNNY   87  77  72 SE16      29.85R HX  99
BLAIR          SUNNY     87  72  61 SE9G16    29.85R HX  93
FREMONT        SUNNY     89  70  53 SE13      29.83F HX  94
OFFUTT AFB     SUNNY     88  75  65 SE14      29.84S HX  97
$$



USA.gov is the U.S. government's official web portal to all federal, state and local government web resources and services.